Temp
7 7 7 7 7 7 7 7 8 8 8 9 9 9 10 11 11 11 11 11 11 11 11 11 11 11 10 10 10 10 9 9 9 9 9 9 9 10 10 10 10 10 10 10 10 10 10 10 10 10 10 11 11 11 12 12 11 11 11 12 12 12 12 11 11 12 12 13 13 13 13 13 13 13 13 13 13 12 12 12 12 12 12 12 12
6 6 7 7 7 7 7 7 7 7 7 8 9 9 10 10 10 10 10 10 11 11 11 11 11 10 10 10 10 10 10 9 9 9 9 9 9 9 9 9 9 9 9 9 9 9 9 9 9 10 10 10 10 11 11 11 11 11 11 11 12 12 12 12 11 11 12 12 13 13 13 13 13 13 13 13 13 13 12 12 12 12 12 12 11
6 6 6 6 6 6 6 6 6 7 7 8 8 9 9 10 10 10 10 10 10 10 10 10 10 10 10 9 9 9 9 8 8 8 9 9 9 9 9 9 9 9 9 9 9 9 9 9 10 10 10 10 10 10 11 11 11 11 11 11 11 12 12 12 11 11 11 12 12 13 13 13 13 13 13 13 13 13 12 12 12 12 12 12 11
6 6 6 6 5 5 6 6 6 6 7 7 8 8 8 9 9 9 9 9 9 9 9 9 9 9 9 9 8 8 8 8 8 8 8 8 9 9 9 9 9 9 9 9 9 9 9 9 9 10 10 10 10 10 10 10 11 11 11 11 11 11 12 11 11 11 11 12 12 12 13 13 13 13 13 13 12 12 12 12 12 12 12 12 11
6 6 6 5 5 5 5 5 6 6 6 7 7 7 8 8 9 9 9 8 8 8 8 8 8 8 8 8 8 7 7 7 7 7 8 8 8 8 9 9 9 9 9 9 9 9 9 9 9 9 10 10 10 10 10 10 10 10 11 11 11 11 11 11 11 11 11 11 12 12 12 12 13 13 13 12 12 12 12 12 12 12 12 12 11
5 5 5 4 4 4 4 4 5 5 5 6 6 7 7 8 8 8 8 7 7 7 7 7 7 7 7 7 7 7 7 7 7 7 7 8 8 8 8 9 9 9 9 10 10 10 10 10 9 9 9 9 10 10 10 10 10 10 10 11 11 11 11 11 11 11 11 11 12 12 12 12 12 12 12 12 12 12 12 12 12 12 12 12 11
5 4 4 4 3 3 3 4 4 5 5 6 6 6 6 7 7 7 6 6 6 6 6 6 6 6 6 6 6 6 6 6 7 7 7 7 7 8 8 8 9 9 9 9 10 9 9 9 9 9 9 9 9 10 10 10 10 10 10 10 11 11 11 11 11 11 11 11 11 11 12 12 12 12 12 12 12 12 12 12 12 12 11 11 12
4 4 3 3 3 3 3 4 4 4 5 6 6 6 6 6 6 6 6 6 6 5 5 5 5 5 5 5 5 5 5 5 6 6 6 6 7 7 7 8 8 8 9 9 9 9 9 9 9 9 9 9 9 9 10 10 10 10 10 10 10 11 11 11 11 11 11 11 11 11 11 12 12 12 12 11 11 11 11 12 12 12 12 12 12
4 3 3 3 2 3 4 4 4 4 5 6 6 6 6 5 5 5 5 5 5 5 4 4 5 5 5 5 5 5 5 5 5 5 5 5 6 6 6 7 7 8 8 8 9 9 9 8 8 8 8 8 8 9 9 10 10 10 10 10 10 10 11 11 11 11 11 11 11 11 11 11 11 12 11 11 11 11 12 12 12 11 11 12 12
3 3 3 3 3 4 4 4 4 4 5 5 5 5 5 5 5 5 5 4 4 4 4 4 4 4 4 4 4 4 4 4 4 4 4 4 5 5 6 6 7 7 7 8 8 8 8 8 8 8 8 8 8 8 9 9 9 9 10 10 10 10 10 10 10 10 11 11 11 11 11 11 11 12 12 12 12 11 12 12 11 11 11 11 11
3 3 3 4 4 4 4 4 4 4 5 5 5 4 4 5 5 4 4 4 4 4 4 4 4 3 4 4 4 4 4 4 4 4 4 4 4 5 5 5 6 6 7 7 7 8 8 8 8 8 8 8 8 8 9 9 9 9 9 10 10 10 10 10 10 10 11 11 11 11 11 11 11 12 12 12 12 11 12 12 12 11 11 10 11
3 3 4 4 5 5 5 5 5 5 5 4 4 4 4 4 4 3 3 3 3 3 3 3 3 3 3 3 3 3 3 3 3 4 4 4 4 4 5 5 5 5 6 6 6 6 6 7 8 8 8 8 8 8 9 9 9 9 9 9 10 10 10 10 10 10 11 11 11 11 11 11 11 11 12 12 12 12 11 12 12 12 11 11 11
3 4 4 4 5 5 5 5 5 5 4 4 4 4 3 3 3 3 3 3 3 3 3 3 3 3 3 3 3 3 3 3 3 3 3 3 4 4 4 4 5 5 5 5 6 5 5 5 7 8 8 9 9 9 9 9 9 9 9 9 9 10 10 10 10 10 11 11 11 11 11 11 11 11 12 12 12 12 11 11 12 12 12 12 12
3 3 4 4 4 4 4 5 4 4 4 3 3 3 3 3 2 2 2 2 3 3 2 2 2 2 2 2 2 2 2 2 3 3 3 3 3 4 4 4 4 4 4 5 5 4 4 4 5 7 8 8 8 9 9 9 9 10 9 9 9 9 10 10 10 10 10 11 10 11 11 11 11 11 12 11 11 12 12 12 12 12 12 12 12
3 3 3 3 3 4 4 4 4 3 3 3 3 2 2 2 2 2 2 2 2 2 2 2 2 2 2 2 2 2 2 2 2 3 3 3 3 3 4 4 4 4 4 4 4 4 4 4 4 5 6 7 8 8 8 9 9 10 10 10 10 9 10 10 10 10 10 10 11 11 11 11 11 11 11 11 11 11 11 12 12 12 12 12 11
3 3 3 3 3 3 3 3 3 3 3 3 2 2 2 2 2 2 2 2 2 2 2 2 2 2 2 1 1 1 1 2 2 2 2 3 3 3 3 3 4 4 4 4 4 3 3 3 4 4 5 7 8 8 8 8 9 10 11 11 10 9 10 11 11 10 10 10 11 11 11 11 11 11 11 11 11 11 11 11 11 11 11 10 10
2 2 2 2 2 3 3 3 3 2 2 2 2 2 2 2 2 2 2 2 2 2 1 1 1 1 1 1 1 1 1 1 1 1 1 2 2 3 3 3 3 3 3 3 3 3 3 3 3 4 5 6 7 8 8 8 9 10 11 11 11 9 9 11 11 11 11 11 10 11 11 11 11 11 11 11 11 11 11 10 10 10 9 9 9
2 2 2 2 2 2 2 2 2 2 2 2 2 1 1 1 1 1 1 1 1 1 1 1 1 1 1 1 1 0 1 1 1 1 1 1 1 1 2 2 2 2 2 3 3 3 3 3 3 3 4 5 5 6 8 8 8 9 10 10 10 9 9 10 11 11 11 11 11 11 11 11 11 11 11 11 11 11 11 10 10 10 10 9 9
2 2 2 2 2 2 2 2 2 2 2 1 1 1 1 1 1 1 1 1 1 1 1 0 0 0 0 0 0 0 0 0 0 0 0 0 0 1 1 1 1 1 1 2 2 2 2 3 3 3 3 4 4 5 7 8 8 8 8 9 9 9 8 9 9 9 10 10 11 11 11 11 11 11 11 11 11 11 11 10 10 10 10 10 9
2 2 2 2 2 2 2 2 2 1 1 1 1 1 1 1 1 1 1 1 1 1 0 0 -0 -0 -0 -0 -0 0 0 0 0 0 0 0 0 0 0 0 0 0 0 1 1 1 2 2 2 2 3 3 4 5 6 7 7 7 7 8 8 8 9 9 9 9 9 10 10 10 10 11 11 11 11 11 11 11 10 10 10 10 10 10 9
2 2 2 2 2 2 2 2 1 1 1 1 1 1 1 1 1 1 1 1 1 0 0 -0 -1 -1 -1 -1 -0 -0 0 0 0 0 0 0 -0 -0 -0 -0 -0 -0 -0 -0 -0 0 1 1 1 2 2 3 3 4 5 6 7 7 7 7 8 8 9 9 9 9 9 9 9 9 10 10 10 10 10 10 10 10 10 10 10 10 10 10 10
2 2 2 2 2 2 1 1 1 1 1 1 1 1 1 1 1 1 1 1 1 0 0 -0 -0 -1 -1 -1 -0 -0 -0 -0 0 0 0 -0 -0 -1 -1 -1 -1 -1 -0 -0 -1 -0 0 0 1 1 1 2 3 4 4 6 6 6 6 7 7 8 8 8 8 9 9 9 9 9 9 9 10 10 10 10 10 10 10 10 10 10 10 10 10
2 2 2 2 2 2 1 1 1 1 1 1 1 1 1 1 1 1 1 1 1 1 0 0 -0 -0 -0 -0 -0 0 0 0 0 0 0 -0 -0 -1 -1 -1 -1 -1 -1 -1 -1 -0 -0 -0 0 1 1 2 3 3 4 5 6 6 6 6 7 7 8 7 7 7 8 8 8 8 8 8 8 9 9 9 10 10 10 10 9 9 9 9 9
2 2 2 2 2 2 2 1 1 1 1 1 1 1 1 1 1 1 1 1 0 0 0 0 -0 -0 -1 -1 -0 0 0 0 0 0 0 -0 -0 -1 -1 -1 -1 -1 -1 -1 -1 -1 -0 -0 0 0 1 1 2 3 3 4 4 5 5 5 6 6 6 7 7 7 7 7 7 7 7 7 7 8 8 9 9 9 9 9 9 9 9 9 9
2 2 2 2 2 2 2 2 1 1 1 2 1 1 1 1 1 1 1 1 0 0 0 0 -0 -1 -1 -1 -0 -0 0 0 0 0 0 0 -0 -1 -1 -1 -1 -1 -1 -1 -1 -1 -1 -0 0 0 0 1 1 2 3 3 3 4 5 5 5 5 5 6 6 6 7 7 7 7 7 7 7 7 8 8 8 8 8 8 8 8 8 8 8
2 2 2 2 2 2 2 2 2 2 2 2 1 1 1 1 1 1 1 1 0 0 -0 -0 -0 -1 -1 -1 -1 -0 -0 0 0 0 0 0 -0 -1 -1 -1 -1 -1 -1 -1 -1 -1 -1 -0 -0 0 0 0 1 1 1 2 3 3 4 4 5 5 5 5 6 6 6 6 6 6 7 7 7 7 7 8 8 8 8 8 8 8 8 8 8
3 2 2 2 2 2 2 2 2 2 2 2 2 1 1 1 1 1 1 1 0 0 -0 -0 -0 -1 -1 -1 -1 -1 -0 -0 -0 0 0 -0 -0 -1 -1 -1 -1 -1 -1 -1 -1 -1 -1 -0 -0 0 0 0 0 0 1 1 2 2 2 3 3 3 3 4 5 5 6 6 6 6 6 6 7 7 7 7 7 8 8 8 8 7 7 7 7
3 3 2 2 2 2 2 2 2 2 2 2 2 2 1 1 1 1 1 1 1 0 -0 -0 -1 -1 -1 -1 -1 -1 -1 -1 -1 -2 -2 -1 -1 -1 -1 -1 -1 -1 -1 -1 -1 -1 -1 -1 -0 0 0 0 0 0 0 0 1 0 0 1 1 2 2 2 3 3 4 4 4 5 5 5 6 6 6 7 7 7 7 7 7 7 7 7 6
3 3 3 2 2 2 2 2 2 2 2 2 2 2 1 1 1 1 1 1 1 0 0 -0 -0 -1 -1 -1 -1 -1 -1 -2 -3 -3 -3 -2 -1 -1 -1 -1 -1 -1 -1 -1 -1 -1 -1 -1 -1 -1 -1 -1 -1 -1 -0 -0 0 0 0 0 0 1 1 1 1 1 1 2 2 3 3 3 4 4 4 5 5 5 5 6 6 6 7 6 6
3 3 3 2 2 2 2 2 2 2 2 2 2 2 2 1 1 1 1 1 1 1 0 0 -0 -0 -1 -1 -1 -1 -2 -2 -3 -3 -3 -2 -2 -1 -1 -1 -1 -1 -1 -1 -1 -1 -1 -2 -2 -2 -2 -2 -2 -2 -1 -1 -1 -0 -0 0 0 0 0 1 1 1 1 1 1 1 2 2 2 2 2 2 3 3 4 4 5 5 5 5 5
3 3 3 2 3 3 2 2 2 2 2 2 2 2 2 2 1 1 1 1 1 1 0 0 -0 -0 -1 -1 -1 -1 -1 -2 -2 -2 -3 -3 -2 -2 -1 -1 -1 -1 -1 -1 -1 -1 -2 -3 -3 -3 -3 -3 -2 -2 -2 -2 -1 -1 -1 -1 -0 -0 0 -0 -0 0 1 1 1 1 1 1 1 1 1 1 1 2 2 2 3 3 3 4 3
3 3 3 3 3 3 3 2 2 2 2 2 2 2 2 2 2 1 1 1 1 1 0 0 0 -0 -0 -1 -1 -1 -1 -1 -1 -2 -2 -3 -3 -2 -2 -1 -1 -2 -2 -1 -1 -2 -3 -3 -4 -4 -3 -3 -3 -3 -2 -2 -2 -2 -2 -1 -1 -1 -1 -0 -0 -0 -0 0 0 1 1 1 1 1 1 1 1 1 1 1 2 2 2 1 1
3 3 3 3 3 3 3 2 2 2 2 2 2 2 2 2 2 2 1 1 1 1 1 0 0 -0 -0 -1 -1 -1 -1 -1 -1 -1 -2 -2 -3 -3 -2 -2 -2 -2 -2 -2 -2 -3 -4 -4 -4 -4 -4 -3 -3 -3 -3 -3 -2 -2 -2 -2 -2 -2 -1 -1 -0 -0 -0 -0 -0 0 0 0 0 1 1 1 1 1 1 1 1 1 1 1 1
3 3 3 3 3 3 3 2 2 2 2 2 2 2 2 2 2 2 2 1 1 1 1 1 0 0 -0 -0 -1 -1 -1 -1 -1 -2 -2 -2 -3 -3 -3 -2 -2 -3 -3 -3 -3 -4 -4 -4 -4 -4 -4 -4 -3 -3 -3 -3 -3 -3 -2 -2 -2 -2 -1 -1 -1 -1 -1 -1 -0 -0 -0 -0 0 0 0 0 0 0 0 0 0 1 1 1 0
3 3 3 3 3 3 3 2 2 2 2 2 2 2 2 2 2 2 2 1 1 1 1 1 0 0 -0 -0 -1 -1 -1 -1 -1 -2 -2 -2 -3 -3 -3 -2 -3 -3 -4 -3 -4 -4 -4 -4 -4 -4 -4 -4 -4 -3 -3 -3 -3 -3 -3 -3 -2 -2 -1 -1 -1 -1 -1 -1 -1 -1 -1 -1 -0 -0 0 0 0 -0 -0 -0 -0 0 0 0 0
3 3 3 3 3 3 3 3 2 2 2 2 2 2 2 2 2 2 2 2 2 1 1 1 0 0 -0 -0 -1 -1 -1 -1 -1 -1 -2 -2 -3 -3 -4 -4 -4 -4 -4 -4 -4 -4 -4 -4 -4 -4 -4 -4 -4 -4 -3 -3 -3 -3 -3 -3 -3 -3 -2 -2 -2 -1 -1 -1 -1 -1 -1 -1 -1 -0 0 0 -0 -0 -0 -0 -0 -0 -0 -0 -0
3 3 3 3 3 3 3 3 3 2 2 2 2 2 2 2 2 2 2 2 2 1 1 1 0 0 -0 -0 -0 -1 -1 -1 -1 -1 -2 -2 -2 -3 -4 -5 -5 -4 -4 -4 -4 -4 -4 -4 -4 -4 -4 -4 -4 -4 -4 -3 -3 -3 -3 -3 -3 -3 -3 -3 -2 -2 -1 -1 -1 -1 -1 -1 -1 -0 -0 -0 -0 -1 -1 -1 -0 -0 -0 -0 -0
3 3 3 3 3 3 3 3 3 3 3 3 3 3 3 3 2 2 2 2 2 1 1 1 1 0 0 -0 -0 -1 -1 -1 -1 -1 -1 -2 -2 -3 -4 -5 -5 -5 -4 -4 -4 -4 -4 -4 -4 -4 -4 -4 -4 -4 -4 -4 -3 -3 -3 -3 -3 -3 -3 -3 -3 -2 -2 -2 -2 -1 -1 -1 -1 -1 -1 -1 -1 -1 -1 -1 -1 -1 -1 -1 -0
3 3 3 3 3 3 3 3 3 3 3 3 3 3 3 3 2 2 2 2 2 1 1 1 1 0 0 0 -0 -1 -1 -1 -1 -1 -1 -2 -2 -2 -3 -4 -4 -4 -4 -4 -4 -4 -4 -4 -4 -4 -4 -4 -4 -4 -4 -4 -4 -3 -3 -3 -3 -3 -3 -3 -3 -3 -3 -2 -2 -2 -2 -1 -1 -1 -1 -1 -1 -1 -1 -1 -1 -1 -1 -1 -1
3 3 3 3 3 3 3 3 3 3 3 3 3 3 3 3 2 2 2 2 2 1 1 1 1 1 0 0 -0 -0 -1 -1 -1 -1 -1 -2 -2 -2 -2 -3 -3 -4 -4 -4 -4 -4 -4 -4 -4 -4 -4 -4 -4 -4 -4 -4 -4 -4 -3 -3 -3 -3 -3 -3 -3 -3 -3 -3 -3 -2 -2 -2 -2 -2 -2 -2 -2 -1 -1 -1 -1 -1 -1 -1 -1
3 3 3 3 3 3 3 3 3 3 3 3 3 3 3 2 2 2 2 2 2 1 1 1 1 1 1 0 -0 -0 -1 -1 -1 -1 -1 -1 -2 -2 -2 -3 -3 -3 -3 -4 -4 -4 -4 -4 -4 -4 -4 -4 -4 -4 -4 -4 -3 -3 -3 -3 -3 -3 -3 -3 -3 -3 -3 -3 -3 -3 -3 -2 -2 -2 -2 -2 -2 -2 -2 -2 -1 -1 -1 -1 -1
3 3 3 3 3 3 3 3 3 3 3 3 3 3 2 2 2 2 2 2 2 1 1 1 1 1 0 0 0 -0 -1 -1 -1 -1 -1 -1 -2 -2 -2 -2 -3 -3 -3 -3 -3 -3 -3 -3 -3 -3 -3 -4 -4 -4 -4 -4 -4 -4 -3 -3 -3 -3 -3 -3 -3 -3 -3 -3 -3 -3 -3 -2 -2 -2 -2 -2 -2 -2 -2 -2 -2 -1 -1 -1 -1
3 3 3 3 3 3 3 3 3 3 3 3 3 2 2 2 2 2 2 2 2 1 1 1 1 1 0 0 0 -0 -0 -1 -1 -1 -1 -1 -1 -2 -2 -2 -2 -3 -3 -3 -3 -3 -3 -3 -3 -3 -3 -3 -3 -4 -4 -4 -4 -4 -3 -3 -3 -3 -3 -3 -3 -3 -3 -3 -3 -2 -2 -2 -2 -2 -2 -2 -2 -2 -2 -2 -2 -2 -1 -1 -1
3 3 3 3 3 3 3 3 3 3 3 3 3 2 2 2 2 2 2 2 2 1 1 1 1 1 0 0 0 0 -0 -0 -1 -1 -1 -1 -1 -1 -2 -2 -2 -2 -3 -3 -3 -3 -3 -3 -3 -3 -3 -3 -3 -3 -3 -3 -3 -3 -3 -3 -3 -3 -3 -3 -3 -3 -3 -3 -2 -2 -2 -2 -2 -2 -2 -2 -2 -2 -2 -2 -2 -2 -2 -1 -1
3 3 3 3 3 3 3 3 3 3 3 3 3 2 2 2 2 2 2 2 2 1 1 1 1 1 0 0 0 0 -0 -0 -0 -1 -1 -1 -1 -1 -1 -2 -2 -2 -2 -2 -3 -3 -3 -3 -3 -3 -3 -3 -3 -3 -3 -3 -3 -3 -3 -3 -3 -3 -3 -3 -3 -3 -3 -2 -2 -2 -2 -2 -2 -2 -2 -2 -2 -2 -2 -2 -2 -2 -2 -2 -1
3 3 3 3 3 3 3 3 3 3 3 3 3 2 2 2 2 2 2 2 2 2 1 1 1 1 1 0 0 0 -0 -0 -0 -1 -1 -1 -1 -1 -1 -2 -2 -2 -2 -2 -2 -3 -3 -3 -3 -3 -3 -3 -3 -3 -3 -3 -3 -3 -3 -3 -3 -3 -3 -3 -3 -3 -3 -3 -2 -2 -2 -2 -2 -2 -2 -2 -2 -2 -2 -2 -2 -2 -2 -2 -2
3 3 3 3 3 3 3 3 3 3 3 3 3 2 2 2 2 2 2 2 2 2 2 1 1 1 1 1 0 0 0 -0 -0 -0 -1 -1 -1 -1 -1 -1 -1 -2 -2 -2 -2 -3 -3 -3 -3 -3 -3 -3 -3 -3 -3 -3 -3 -3 -3 -3 -2 -2 -2 -3 -3 -3 -3 -3 -3 -3 -2 -2 -2 -2 -2 -2 -2 -2 -2 -2 -2 -2 -2 -2 -2
3 3 3 3 3 3 3 3 3 3 3 3 3 2 2 2 2 2 2 2 2 2 2 1 1 1 1 1 1 0 0 -0 -0 -0 -0 -1 -1 -1 -1 -1 -1 -1 -2 -2 -2 -2 -3 -3 -3 -3 -3 -3 -3 -3 -3 -3 -3 -3 -3 -2 -2 -2 -2 -2 -3 -3 -3 -3 -3 -3 -3 -3 -2 -2 -2 -2 -2 -2 -2 -2 -2 -2 -2 -2 -2
3 3 3 3 3 3 3 3 3 3 3 3 3 3 2 2 2 2 2 2 2 2 2 1 1 1 1 1 1 0 0 0 -0 -0 -0 -1 -1 -1 -1 -1 -1 -1 -1 -2 -2 -2 -2 -3 -3 -3 -3 -3 -3 -3 -3 -3 -3 -3 -3 -3 -2 -2 -2 -2 -3 -3 -3 -3 -3 -3 -3 -3 -3 -2 -2 -2 -2 -2 -2 -2 -2 -2 -2 -2 -2
3 3 3 3 3 3 3 3 3 3 3 3 3 3 2 2 2 2 2 2 2 2 2 2 1 1 1 1 1 1 1 0 0 -0 -0 -0 -1 -1 -1 -1 -1 -1 -1 -2 -2 -2 -2 -2 -2 -3 -3 -3 -3 -3 -3 -3 -3 -3 -3 -3 -2 -2 -2 -2 -2 -3 -3 -3 -3 -3 -3 -3 -3 -3 -3 -3 -3 -2 -2 -2 -2 -2 -2 -2 -2
3 3 3 3 3 3 3 3 3 3 3 3 3 3 2 2 2 2 2 2 2 2 2 2 1 1 1 1 1 1 1 1 0 0 -0 -0 -1 -1 -1 -1 -1 -1 -2 -2 -2 -2 -2 -2 -2 -2 -3 -3 -3 -3 -3 -3 -3 -3 -3 -3 -3 -3 -2 -2 -2 -3 -3 -3 -3 -3 -3 -3 -3 -3 -3 -3 -3 -3 -3 -2 -2 -2 -2 -2 -2
Height
1537 1537 1537 1536 1535 1534 1533 1532 1530 1529 1528 1528 1527 1526 1525 1524 1523 1522 1521 1520 1519 1518 1516 1515 1514 1513 1511 1510 1508 1507 1506 1506 1505 1503 1502 1501 1501 1500 1498 1497 1496 1494 1493 1492 1492 1491 1489 1488 1487 1486 1486 1486 1485 1484 1484 1484 1484 1484 1483 1483 1482 1482 1482 1481 1480 1480 1482 1484 1486 1487 1488 1490 1490 1491 1492 1493 1494 1495 1497 1500 1503 1504 1506 1508 1510
1538 1538 1537 1536 1535 1534 1533 1532 1530 1529 1528 1528 1527 1526 1525 1524 1523 1522 1521 1520 1519 1518 1516 1515 1514 1512 1510 1509 1507 1506 1505 1504 1503 1501 1500 1499 1498 1497 1495 1494 1493 1492 1490 1489 1488 1487 1486 1485 1484 1484 1483 1483 1481 1481 1480 1480 1480 1480 1480 1480 1479 1479 1479 1478 1478 1477 1478 1479 1481 1483 1484 1485 1486 1487 1488 1489 1490 1491 1493 1496 1498 1500 1502 1504 1506
1538 1538 1537 1536 1535 1534 1533 1531 1530 1529 1529 1528 1527 1526 1525 1524 1523 1522 1521 1520 1519 1518 1516 1515 1513 1512 1510 1509 1507 1505 1504 1503 1501 1500 1498 1497 1495 1494 1492 1491 1489 1488 1487 1486 1485 1484 1483 1482 1481 1481 1480 1479 1478 1477 1477 1477 1477 1476 1476 1476 1476 1475 1475 1475 1475 1474 1474 1475 1477 1479 1480 1480 1481 1483 1485 1486 1487 1488 1489 1492 1494 1495 1497 1500 1502
1539 1538 1537 1536 1535 1534 1532 1531 1531 1530 1529 1528 1527 1526 1525 1525 1523 1523 1522 1520 1519 1518 1516 1515 1513 1511 1510 1508 1506 1504 1503 1501 1500 1499 1497 1495 1494 1492 1490 1489 1487 1485 1484 1483 1481 1480 1479 1478 1478 1478 1477 1476 1475 1474 1474 1474 1473 1473 1472 1472 1472 1471 1471 1472 1471 1471 1471 1471 1472 1474 1476 1476 1477 1479 1481 1483 1483 1484 1486 1488 1490 1490 1493 1496 1498
1539 1538 1537 1536 1535 1534 1533 1532 1531 1530 1529 1528 1528 1527 1526 1525 1523 1522 1521 1520 1519 1518 1517 1515 1513 1511 1509 1507 1506 1504 1502 1500 1499 1497 1496 1494 1492 1490 1489 1487 1485 1484 1482 1480 1479 1477 1476 1474 1474 1474 1474 1472 1471 1471 1470 1470 1470 1469 1469 1468 1468 1468 1468 1468 1468 1468 1467 1466 1467 1469 1471 1472 1473 1474 1476 1478 1479 1481 1482 1484 1486 1487 1490 1492 1494
1539 1538 1537 1536 1535 1534 1533 1532 1531 1530 1530 1529 1528 1527 1526 1525 1524 1522 1521 1520 1519 1518 1517 1515 1513 1511 1510 1508 1506 1504 1502 1500 1498 1496 1495 1493 1491 1489 1487 1485 1483 1481 1480 1478 1476 1474 1472 1471 1470 1469 1469 1468 1467 1467 1466 1466 1466 1465 1465 1464 1465 1465 1464 1464 1463 1463 1463 1463 1463 1464 1466 1467 1469 1470 1471 1473 1475 1476 1477 1479 1481 1483 1486 1488 1490
1539 1538 1537 1537 1536 1535 1534 1533 1532 1531 1530 1530 1529 1528 1527 1526 1524 1523 1522 1520 1519 1518 1516 1515 1513 1511 1510 1508 1505 1503 1501 1499 1497 1496 1494 1492 1490 1487 1485 1483 1481 1479 1477 1475 1473 1471 1469 1468 1466 1465 1464 1463 1462 1462 1462 1462 1462 1461 1461 1460 1460 1460 1460 1460 1460 1459 1459 1459 1459 1459 1461 1463 1465 1465 1466 1469 1470 1471 1472 1474 1476 1478 1480 1483 1486
1539 1539 1538 1537 1536 1535 1535 1534 1533 1532 1531 1530 1530 1528 1527 1526 1524 1523 1522 1520 1519 1517 1516 1515 1513 1511 1509 1507 1505 1503 1501 1498 1496 1494 1492 1490 1488 1486 1484 1481 1479 1477 1475 1473 1471 1468 1466 1464 1463 1461 1460 1459 1458 1457 1457 1457 1457 1456 1456 1456 1456 1456 1456 1456 1456 1455 1455 1455 1455 1455 1456 1458 1460 1461 1462 1464 1464 1464 1466 1468 1471 1473 1475 1478 1481
1539 1539 1538 1538 1537 1536 1535 1534 1534 1533 1532 1531 1530 1529 1528 1526 1525 1523 1522 1520 1519 1517 1516 1514 1513 1511 1509 1507 1505 1502 1500 1498 1495 1493 1490 1488 1486 1484 1482 1480 1477 1474 1472 1470 1468 1466 1463 1461 1459 1458 1456 1455 1453 1452 1452 1452 1452 1451 1451 1451 1451 1451 1451 1451 1451 1451 1451 1451 1451 1451 1452 1452 1454 1456 1456 1457 1458 1460 1463 1465 1467 1469 1471 1474 1476
1540 1540 1539 1538 1537 1537 1536 1535 1534 1533 1532 1531 1531 1530 1528 1526 1525 1523 1522 1520 1519 1518 1516 1514 1513 1511 1509 1507 1505 1502 1500 1498 1496 1493 1490 1487 1485 1482 1480 1478 1476 1473 1470 1467 1465 1463 1461 1458 1456 1455 1453 1451 1449 1447 1446 1446 1446 1446 1446 1446 1447 1447 1447 1446 1446 1447 1447 1446 1446 1446 1447 1447 1448 1450 1451 1451 1454 1458 1460 1461 1462 1465 1468 1470 1471
1541 1540 1539 1539 1538 1537 1536 1535 1535 1534 1533 1532 1531 1530 1529 1527 1525 1524 1522 1521 1519 1518 1516 1515 1513 1511 1509 1507 1504 1502 1499 1497 1495 1493 1490 1487 1484 1481 1478 1476 1473 1471 1468 1465 1462 1460 1458 1456 1453 1451 1449 1447 1444 1443 1441 1440 1439 1440 1440 1441 1441 1442 1442 1442 1442 1442 1442 1442 1441 1442 1442 1442 1443 1445 1446 1448 1451 1453 1454 1456 1458 1460 1462 1463 1464
1542 1541 1540 1540 1539 1538 1537 1536 1535 1534 1534 1533 1532 1531 1530 1528 1526 1525 1523 1521 1520 1518 1517 1515 1514 1512 1509 1506 1504 1501 1499 1496 1494 1492 1489 1487 1484 1481 1478 1474 1471 1469 1466 1463 1460 1457 1454 1452 1450 1448 1445 1443 1441 1438 1436 1434 1433 1433 1433 1433 1434 1435 1436 1437 1437 1437 1438 1437 1437 1437 1437 1438 1439 1440 1442 1443 1445 1448 1450 1451 1453 1454 1455 1456 1457
1543 1542 1542 1541 1540 1539 1538 1537 1536 1535 1535 1534 1533 1532 1531 1529 1527 1526 1524 1522 1521 1519 1518 1516 1514 1512 1509 1506 1503 1501 1498 1496 1494 1491 1488 1486 1483 1480 1477 1474 1471 1468 1465 1462 1459 1456 1452 1449 1447 1444 1442 1440 1437 1434 1431 1429 1427 1426 1426 1426 1426 1428 1429 1430 1431 1432 1433 1433 1432 1432 1432 1433 1434 1435 1438 1439 1441 1443 1444 1445 1447 1448 1449 1450 1452
1544 1544 1543 1542 1541 1540 1539 1538 1537 1537 1536 1536 1535 1534 1532 1530 1529 1527 1525 1523 1522 1520 1518 1516 1514 1512 1509 1506 1504 1501 1498 1496 1493 1490 1487 1485 1482 1479 1476 1473 1470 1467 1464 1461 1458 1455 1451 1448 1444 1442 1439 1436 1434 1430 1427 1424 1421 1419 1419 1419 1419 1420 1422 1424 1425 1427 1427 1427 1427 1427 1428 1429 1430 1432 1434 1435 1435 1436 1438 1439 1441 1443 1444 1446 1450
1546 1545 1544 1543 1542 1541 1540 1540 1539 1538 1538 1537 1536 1535 1533 1531 1530 1528 1526 1525 1523 1521 1519 1516 1514 1511 1509 1507 1504 1501 1499 1496 1493 1490 1487 1484 1481 1478 1475 1472 1469 1466 1463 1460 1457 1454 1451 1447 1443 1440 1437 1434 1431 1427 1423 1419 1415 1413 1412 1412 1413 1414 1415 1417 1419 1421 1422 1422 1422 1422 1423 1425 1426 1428 1430 1430 1430 1432 1434 1435 1436 1438 1440 1443 1445
1547 1546 1545 1544 1544 1543 1542 1541 1541 1540 1540 1539 1538 1536 1534 1533 1531 1530 1528 1526 1524 1522 1519 1516 1514 1511 1509 1506 1504 1501 1499 1496 1493 1489 1486 1483 1480 1476 1474 1470 1467 1465 1462 1459 1456 1453 1449 1446 1442 1439 1435 1432 1429 1425 1421 1415 1410 1407 1405 1405 1407 1408 1409 1411 1414 1416 1417 1417 1418 1418 1419 1420 1422 1424 1426 1426 1427 1429 1431 1432 1433 1434 1436 1437 1439
1548 1547 1546 1546 1545 1545 1544 1543 1542 1542 1541 1540 1538 1537 1536 1535 1533 1532 1530 1527 1524 1522 1519 1516 1514 1511 1509 1506 1504 1502 1499 1496 1493 1489 1486 1482 1479 1475 1472 1469 1466 1463 1460 1458 1455 1452 1449 1445 1441 1437 1433 1430 1426 1422 1418 1411 1406 1402 1400 1399 1401 1402 1404 1406 1409 1411 1412 1412 1413 1414 1415 1416 1417 1419 1421 1422 1423 1425 1426 1426 1426 1428 1430 1432 1434
1549 1548 1548 1547 1547 1546 1546 1545 1544 1543 1542 1541 1540 1538 1537 1536 1534 1533 1530 1527 1525 1522 1520 1517 1515 1512 1509 1507 1504 1502 1499 1496 1493 1490 1486 1482 1479 1475 1471 1468 1465 1462 1459 1456 1454 1451 1448 1444 1441 1436 1432 1428 1424 1420 1415 1409 1403 1399 1396 1395 1396 1398 1400 1402 1405 1406 1407 1408 1408 1409 1410 1411 1413 1415 1416 1417 1419 1420 1420 1420 1421 1423 1425 1427 1429
1550 1549 1549 1549 1548 1548 1547 1546 1545 1544 1543 1542 1541 1540 1538 1537 1535 1533 1531 1528 1525 1523 1520 1518 1515 1513 1510 1508 1505 1503 1500 1497 1494 1491 1487 1483 1479 1475 1471 1468 1464 1461 1458 1455 1452 1449 1446 1443 1439 1435 1431 1427 1423 1419 1414 1408 1402 1398 1394 1393 1394 1395 1398 1400 1401 1403 1404 1404 1405 1405 1406 1407 1408 1410 1411 1412 1414 1414 1415 1416 1417 1419 1420 1423 1425
1551 1550 1550 1550 1549 1549 1548 1547 1546 1545 1544 1543 1542 1541 1539 1538 1536 1534 1531 1529 1526 1524 1522 1519 1517 1514 1511 1508 1506 1503 1500 1497 1494 1491 1488 1484 1480 1477 1473 1468 1465 1461 1458 1455 1451 1448 1444 1441 1437 1434 1430 1426 1422 1419 1414 1409 1404 1399 1396 1394 1394 1395 1396 1398 1399 1400 1400 1400 1401 1401 1402 1403 1404 1405 1406 1407 1408 1409 1411 1412 1413 1414 1416 1419 1420
1552 1552 1552 1551 1550 1550 1549 1548 1547 1546 1545 1544 1543 1542 1540 1538 1536 1534 1532 1530 1528 1525 1523 1520 1518 1515 1512 1509 1506 1503 1500 1498 1495 1492 1489 1485 1482 1478 1474 1470 1466 1463 1460 1456 1452 1448 1444 1440 1437 1433 1429 1426 1422 1419 1415 1410 1406 1401 1398 1395 1394 1394 1394 1395 1396 1396 1397 1397 1397 1398 1398 1399 1400 1400 1401 1402 1403 1405 1407 1408 1408 1410 1412 1414 1415
1553 1553 1552 1552 1551 1550 1550 1549 1548 1547 1546 1545 1544 1542 1540 1539 1537 1535 1533 1531 1528 1526 1523 1520 1518 1515 1512 1509 1506 1503 1501 1498 1495 1492 1489 1486 1483 1480 1476 1472 1469 1465 1461 1457 1454 1450 1446 1442 1438 1434 1431 1427 1423 1420 1416 1411 1407 1403 1400 1397 1395 1393 1392 1393 1393 1393 1393 1393 1394 1394 1395 1395 1396 1397 1397 1398 1400 1401 1403 1404 1405 1407 1409 1410 1411
1554 1554 1553 1552 1552 1551 1551 1550 1549 1548 1547 1546 1544 1542 1541 1539 1538 1536 1534 1532 1529 1526 1523 1521 1518 1515 1512 1509 1506 1504 1501 1499 1496 1493 1490 1487 1484 1481 1478 1475 1471 1467 1462 1458 1455 1452 1448 1444 1440 1436 1433 1429 1425 1421 1417 1412 1408 1405 1402 1399 1396 1394 1392 1391 1392 1392 1392 1392 1392 1393 1393 1393 1394 1394 1394 1395 1397 1398 1400 1401 1402 1404 1406 1407 1409
1555 1554 1554 1553 1553 1552 1551 1551 1550 1549 1548 1546 1545 1543 1542 1540 1538 1536 1534 1532 1529 1527 1524 1522 1519 1515 1512 1510 1507 1504 1502 1499 1497 1494 1491 1488 1485 1482 1479 1476 1472 1469 1465 1461 1457 1453 1450 1446 1442 1439 1435 1430 1426 1422 1418 1414 1409 1406 1404 1401 1399 1396 1394 1393 1393 1393 1393 1393 1394 1395 1395 1395 1395 1394 1394 1395 1397 1398 1398 1399 1400 1401 1403 1405 1408
1555 1555 1554 1554 1553 1553 1552 1551 1550 1549 1548 1547 1546 1544 1542 1541 1539 1537 1535 1533 1530 1528 1525 1523 1520 1517 1514 1511 1508 1505 1502 1500 1497 1495 1492 1489 1487 1484 1481 1477 1474 1470 1467 1463 1459 1456 1452 1448 1444 1440 1436 1432 1428 1423 1419 1415 1411 1408 1406 1404 1401 1399 1398 1397 1396 1395 1395 1395 1396 1397 1397 1398 1399 1397 1395 1397 1399 1400 1400 1400 1400 1401 1402 1404 1407
1555 1555 1555 1554 1554 1554 1553 1552 1551 1550 1549 1548 1546 1545 1543 1541 1540 1538 1536 1534 1532 1529 1527 1524 1521 1519 1516 1513 1510 1506 1503 1500 1498 1495 1493 1490 1487 1485 1482 1479 1476 1472 1469 1465 1462 1458 1454 1450 1446 1442 1438 1434 1429 1425 1421 1417 1414 1410 1408 1406 1404 1402 1401 1400 1399 1399 1398 1398 1398 1399 1399 1399 1401 1400 1399 1399 1401 1402 1403 1402 1402 1402 1403 1404 1406
1555 1555 1555 1555 1554 1554 1553 1553 1551 1550 1549 1548 1547 1546 1544 1542 1540 1539 1537 1535 1533 1531 1528 1525 1523 1520 1517 1515 1512 1508 1505 1502 1498 1496 1493 1491 1488 1486 1483 1480 1477 1473 1470 1466 1463 1459 1455 1451 1447 1444 1440 1436 1432 1428 1424 1420 1416 1413 1411 1409 1408 1407 1406 1404 1403 1402 1402 1401 1401 1401 1402 1402 1402 1403 1402 1403 1403 1404 1404 1405 1404 1404 1405 1405 1406
1555 1555 1555 1555 1555 1554 1554 1553 1552 1551 1550 1549 1548 1546 1545 1543 1541 1540 1538 1536 1534 1532 1530 1527 1525 1522 1519 1516 1513 1510 1506 1503 1500 1497 1495 1492 1490 1487 1484 1481 1478 1475 1471 1468 1465 1461 1457 1452 1448 1444 1440 1437 1433 1430 1427 1424 1421 1419 1416 1414 1412 1411 1410 1409 1407 1406 1406 1405 1404 1404 1405 1404 1404 1404 1405 1405 1405 1405 1406 1406 1406 1407 1407 1407 1408
1555 1555 1555 1555 1555 1554 1554 1553 1552 1551 1550 1549 1548 1547 1546 1544 1542 1541 1539 1537 1535 1534 1531 1529 1527 1525 1522 1519 1515 1512 1508 1506 1503 1501 1498 1496 1493 1490 1487 1484 1481 1478 1475 1472 1468 1463 1458 1453 1449 1445 1442 1439 1436 1433 1431 1428 1427 1424 1421 1419 1417 1415 1414 1412 1412 1411 1411 1410 1409 1409 1408 1408 1408 1408 1407 1407 1407 1407 1407 1407 1408 1408 1409 1409 1410
1556 1556 1555 1555 1555 1554 1554 1553 1553 1552 1551 1550 1549 1548 1547 1545 1544 1542 1540 1539 1537 1535 1533 1531 1529 1527 1524 1522 1518 1515 1512 1510 1507 1504 1501 1498 1496 1493 1490 1487 1484 1481 1478 1475 1470 1465 1460 1456 1453 1449 1446 1443 1441 1438 1435 1433 1431 1429 1426 1424 1423 1421 1419 1418 1417 1417 1416 1415 1414 1414 1413 1412 1412 1412 1412 1411 1411 1411 1410 1410 1409 1410 1410 1411 1412
1556 1556 1555 1555 1555 1554 1554 1553 1553 1552 1551 1551 1550 1549 1547 1546 1545 1543 1541 1540 1538 1537 1535 1533 1531 1529 1526 1524 1521 1519 1516 1513 1510 1506 1503 1500 1498 1495 1492 1490 1487 1483 1480 1477 1472 1467 1463 1460 1457 1455 1452 1449 1446 1444 1441 1438 1436 1434 1432 1430 1428 1427 1425 1424 1423 1422 1421 1420 1419 1419 1418 1418 1418 1417 1417 1417 1416 1416 1416 1415 1415 1414 1414 1415 1416
1556 1556 1556 1555 1555 1554 1554 1553 1553 1553 1552 1551 1550 1549 1548 1547 1546 1544 1542 1541 1539 1538 1536 1534 1532 1530 1528 1526 1523 1521 1518 1515 1512 1508 1505 1502 1500 1497 1494 1492 1489 1486 1483 1479 1474 1470 1468 1465 1463 1460 1457 1455 1452 1449 1446 1443 1441 1440 1437 1435 1433 1432 1431 1430 1429 1428 1427 1425 1425 1424 1424 1424 1423 1423 1422 1422 1422 1422 1421 1422 1422 1422 1422 1422 1422
1556 1556 1556 1555 1555 1555 1554 1554 1553 1553 1552 1552 1551 1550 1549 1548 1547 1545 1544 1542 1540 1539 1537 1535 1534 1532 1530 1527 1525 1522 1520 1517 1514 1511 1507 1504 1502 1499 1496 1494 1491 1488 1485 1481 1477 1475 1472 1470 1468 1465 1463 1460 1457 1454 1452 1449 1447 1445 1443 1441 1440 1438 1437 1436 1434 1433 1431 1431 1430 1429 1429 1429 1428 1428 1427 1427 1427 1427 1427 1427 1428 1429 1429 1430 1430
1556 1556 1556 1556 1555 1555 1554 1554 1554 1553 1552 1552 1551 1550 1549 1549 1547 1546 1545 1543 1541 1540 1538 1537 1535 1533 1531 1529 1527 1524 1522 1519 1516 1513 1510 1507 1504 1501 1499 1496 1493 1490 1487 1484 1481 1479 1477 1474 1472 1470 1467 1465 1462 1459 1457 1455 1452 1450 1448 1446 1445 1444 1442 1441 1439 1437 1436 1435 1435 1434 1434 1433 1433 1433 1433 1432 1433 1433 1433 1433 1434 1435 1435 1436 1437
1556 1556 1556 1556 1556 1555 1555 1554 1554 1553 1553 1552 1551 1551 1550 1549 1548 1547 1546 1544 1542 1541 1539 1538 1536 1534 1532 1530 1528 1526 1524 1521 1518 1515 1512 1509 1506 1503 1500 1497 1494 1492 1490 1487 1485 1483 1481 1479 1477 1474 1472 1470 1467 1464 1462 1460 1457 1455 1453 1451 1450 1448 1447 1445 1443 1442 1441 1440 1439 1439 1438 1438 1437 1438 1438 1438 1438 1438 1439 1439 1440 1440 1441 1442 1443
1556 1556 1556 1556 1556 1555 1555 1555 1554 1554 1553 1552 1552 1551 1550 1550 1549 1548 1546 1545 1543 1542 1540 1538 1537 1535 1533 1531 1529 1527 1525 1523 1520 1517 1514 1511 1507 1504 1501 1498 1496 1494 1493 1491 1489 1487 1485 1483 1481 1479 1477 1474 1472 1470 1467 1465 1462 1460 1458 1457 1455 1453 1451 1449 1448 1447 1446 1445 1444 1443 1442 1442 1441 1442 1443 1443 1443 1444 1444 1445 1445 1445 1446 1447 1447
1556 1556 1556 1556 1556 1555 1555 1555 1554 1554 1553 1553 1552 1551 1551 1550 1549 1548 1547 1546 1544 1543 1541 1539 1537 1536 1534 1532 1531 1529 1526 1524 1522 1519 1516 1513 1510 1506 1503 1501 1500 1498 1496 1494 1492 1490 1489 1487 1485 1483 1480 1478 1476 1474 1472 1470 1468 1466 1464 1462 1460 1458 1456 1454 1453 1452 1450 1450 1449 1448 1447 1447 1447 1447 1448 1448 1448 1449 1449 1450 1450 1450 1451 1451 1452
1556 1556 1556 1556 1556 1555 1555 1555 1554 1554 1553 1553 1552 1551 1551 1550 1549 1548 1547 1546 1545 1543 1542 1540 1538 1536 1535 1533 1531 1529 1528 1526 1524 1521 1518 1515 1512 1509 1506 1504 1503 1501 1499 1497 1495 1493 1491 1490 1488 1486 1484 1482 1480 1478 1476 1474 1473 1471 1469 1467 1465 1463 1461 1459 1457 1456 1455 1454 1454 1453 1452 1452 1452 1452 1452 1453 1453 1453 1454 1454 1455 1455 1455 1456 1456
1555 1555 1555 1555 1555 1555 1555 1555 1554 1554 1553 1553 1552 1551 1551 1550 1549 1548 1547 1546 1545 1544 1542 1541 1539 1537 1535 1534 1532 1530 1529 1527 1524 1522 1519 1517 1514 1512 1509 1507 1505 1503 1502 1500 1498 1496 1494 1492 1491 1489 1487 1485 1483 1481 1480 1478 1476 1475 1473 1471 1469 1467 1466 1464 1462 1461 1460 1459 1458 1458 1457 1456 1456 1456 1456 1456 1457 1458 1458 1458 1459 1459 1459 1460 1460
1555 1555 1555 1555 1555 1555 1555 1554 1554 1553 1553 1553 1552 1551 1550 1549 1549 1548 1547 1546 1545 1544 1542 1541 1540 1538 1536 1535 1533 1531 1530 1528 1525 1523 1521 1519 1516 1514 1512 1510 1508 1506 1504 1502 1500 1498 1496 1495 1493 1491 1489 1488 1486 1484 1483 1481 1479 1478 1476 1475 1473 1472 1470 1469 1468 1466 1465 1464 1463 1462 1462 1461 1461 1461 1460 1460 1461 1462 1462 1462 1463 1463 1463 1463 1464
1554 1554 1554 1554 1554 1554 1554 1554 1554 1553 1553 1552 1552 1551 1550 1549 1548 1548 1547 1546 1545 1544 1543 1541 1540 1539 1537 1536 1534 1532 1531 1529 1527 1525 1523 1520 1518 1516 1514 1512 1510 1508 1506 1505 1503 1501 1499 1497 1495 1493 1491 1490 1488 1487 1485 1484 1482 1481 1479 1478 1476 1475 1474 1473 1472 1471 1470 1469 1468 1467 1466 1466 1465 1465 1465 1465 1465 1466 1466 1466 1467 1467 1467 1467 1468
1553 1553 1553 1554 1554 1553 1553 1553 1553 1553 1552 1552 1551 1550 1549 1549 1548 1547 1547 1546 1545 1544 1543 1542 1540 1539 1538 1536 1535 1533 1531 1529 1528 1526 1524 1522 1520 1518 1516 1514 1512 1510 1508 1507 1505 1503 1501 1499 1497 1495 1493 1492 1490 1489 1487 1486 1484 1483 1482 1480 1479 1478 1477 1476 1476 1475 1474 1473 1472 1471 1471 1470 1469 1469 1469 1469 1469 1469 1470 1470 1470 1470 1471 1471 1472
1552 1552 1553 1553 1553 1553 1553 1553 1552 1552 1552 1551 1551 1550 1549 1548 1548 1547 1546 1546 1545 1544 1543 1542 1540 1539 1538 1537 1535 1534 1532 1530 1529 1527 1525 1523 1522 1520 1518 1516 1514 1512 1510 1509 1507 1505 1503 1501 1499 1497 1495 1494 1492 1491 1489 1488 1487 1485 1484 1483 1482 1481 1480 1480 1479 1478 1477 1477 1476 1475 1475 1474 1474 1473 1473 1473 1473 1473 1473 1473 1473 1474 1474 1475 1476
1551 1552 1552 1552 1552 1552 1552 1552 1552 1552 1551 1551 1550 1549 1548 1548 1547 1547 1546 1545 1544 1543 1542 1541 1540 1539 1538 1537 1535 1534 1532 1531 1529 1528 1526 1524 1523 1521 1519 1517 1516 1514 1512 1510 1508 1506 1504 1503 1501 1499 1497 1496 1494 1493 1492 1490 1489 1488 1486 1485 1484 1484 1483 1482 1482 1481 1480 1480 1479 1479 1478 1478 1477 1477 1477 1477 1476 1476 1476 1476 1476 1477 1477 1478 1478
1550 1551 1551 1551 1551 1551 1551 1551 1551 1551 1550 1550 1550 1549 1548 1547 1547 1546 1546 1545 1544 1543 1542 1541 1540 1539 1538 1536 1535 1534 1533 1531 1530 1528 1527 1525 1524 1522 1520 1519 1517 1515 1513 1512 1510 1508 1506 1504 1502 1501 1499 1498 1496 1495 1494 1492 1491 1490 1488 1487 1486 1485 1485 1484 1484 1484 1483 1483 1483 1482 1481 1481 1480 1480 1480 1480 1480 1479 1479 1479 1479 1479 1480 1480 1481
1550 1550 1550 1550 1551 1551 1551 1551 1551 1550 1550 1550 1549 1549 1548 1547 1546 1546 1545 1544 1544 1543 1541 1540 1539 1538 1537 1536 1535 1534 1533 1531 1530 1528 1527 1525 1524 1523 1521 1520 1518 1516 1515 1513 1512 1510 1508 1506 1504 1502 1501 1499 1498 1497 1495 1494 1493 1491 1490 1489 1488 1487 1486 1486 1486 1486 1486 1485 1485 1485 1484 1484 1483 1483 1482 1482 1482 1482 1481 1481 1481 1481 1481 1482 1482
1548 1549 1549 1550 1550 1550 1550 1550 1550 1550 1549 1549 1548 1548 1547 1547 1546 1545 1545 1544 1543 1542 1541 1540 1539 1538 1537 1536 1535 1533 1532 1531 1530 1528 1527 1526 1524 1523 1522 1520 1519 1517 1516 1514 1513 1511 1509 1507 1506 1504 1503 1501 1500 1499 1497 1496 1494 1493 1492 1491 1490 1489 1488 1488 1487 1487 1487 1487 1487 1486 1486 1486 1485 1485 1485 1484 1484 1484 1483 1483 1483 1483 1483 1483 1483
1547 1548 1548 1548 1549 1549 1549 1549 1549 1549 1548 1548 1548 1547 1547 1546 1545 1545 1544 1543 1542 1542 1541 1540 1538 1537 1536 1535 1534 1533 1532 1531 1530 1528 1527 1526 1524 1523 1522 1520 1519 1518 1516 1515 1514 1512 1511 1509 1507 1506 1504 1503 1502 1500 1499 1497 1496 1495 1493 1492 1491 1490 1489 1489 1489 1489 1489 1488 1488 1488 1488 1487 1487 1487 1486 1486 1486 1486 1485 1485 1485 1484 1484 1484 1485
1546 1546 1547 1547 1547 1547 1547 1547 1547 1547 1547 1547 1547 1546 1546 1545 1544 1544 1543 1542 1542 1541 1540 1539 1538 1537 1536 1534 1533 1532 1531 1530 1529 1528 1527 1525 1524 1523 1522 1521 1519 1518 1517 1516 1514 1513 1512 1510 1509 1507 1506 1504 1503 1502 1500 1499 1498 1496 1495 1494 1492 1491 1491 1490 1490 1489 1489 1489 1489 1489 1489 1489 1488 1488 1488 1487 1487 1487 1487 1486 1486 1486 1486 1486 1486
1545 1545 1545 1546 1546 1546 1546 1546 1546 1546 1546 1546 1545 1545 1544 1544 1543 1543 1542 1541 1541 1540 1539 1538 1537 1536 1535 1534 1533 1531 1530 1529 1529 1527 1526 1525 1524 1523 1522 1520 1519 1518 1517 1516 1515 1514 1513 1511 1510 1509 1507 1506 1504 1503 1502 1500 1499 1498 1496 1495 1494 1493 1492 1491 1490 1490 1490 1490 1489 1489 1489 1489 1489 1489 1488 1488 1488 1487 1487 1487 1487 1487 1487 1487 1487
1543 1543 1543 1544 1544 1544 1544 1544 1544 1544 1544 1544 1544 1543 1543 1542 1542 1541 1541 1540 1540 1539 1538 1537 1536 1535 1534 1533 1532 1531 1530 1529 1528 1527 1526 1524 1523 1522 1521 1520 1519 1518 1517 1516 1515 1514 1513 1512 1511 1509 1508 1507 1505 1504 1503 1502 1500 1499 1498 1497 1495 1494 1493 1492 1491 1491 1490 1490 1490 1489 1489 1489 1489 1489 1488 1488 1488 1488 1487 1487 1487 1488 1488 1488 1488
Wind_Speed
6 5 4 4 4 5 6 7 9 11 12 10 8 5 4 5 6 7 8 9 9 10 12 13 14 16 18 19 21 22 23 23 23 24 24 23 23 23 24 24 25 26 27 26 25 25 26 26 26 24 23 23 24 23 23 23 23 24 26 28 30 31 32 33 36 36 35 33 31 32 33 31 30 29 27 28 30 35 38 37 35 34 34 35 35
4 5 5 5 6 6 7 9 10 11 12 10 6 4 4 5 6 7 9 9 10 11 11 12 12 13 15 16 18 20 21 21 21 21 22 22 22 23 25 27 28 28 28 28 27 27 27 28 28 27 25 26 27 26 26 25 25 25 25 27 29 31 31 32 34 36 36 34 32 32 34 34 33 32 30 30 30 34 37 38 38 37 36 37 37
4 5 5 5 6 5 6 7 7 8 8 7 5 5 6 7 7 8 9 10 11 11 12 12 12 13 13 14 15 17 17 17 17 17 18 18 19 19 20 22 25 27 29 30 30 30 28 28 28 27 26 27 29 29 28 27 27 27 27 28 28 30 30 31 33 35 36 36 33 32 33 34 34 33 32 32 31 33 36 39 40 40 39 39 38
4 5 6 5 4 4 4 5 6 7 8 9 8 8 9 9 9 9 10 11 12 12 12 12 13 13 13 14 14 16 16 17 17 16 16 17 17 17 18 18 20 21 24 25 28 29 30 30 29 27 27 28 29 29 29 29 28 28 29 29 29 30 30 30 32 33 35 36 35 33 33 34 34 33 32 32 32 32 35 38 42 43 41 40 40
4 5 4 3 3 4 5 6 7 8 9 9 10 10 10 10 10 10 11 11 12 12 12 12 13 13 14 14 15 16 17 18 18 18 18 18 18 19 19 19 20 20 21 22 23 25 28 30 31 30 29 29 30 30 30 30 30 30 30 30 30 30 31 31 31 32 34 36 36 35 34 33 34 34 33 33 32 32 34 37 41 43 42 41 41
3 3 2 2 3 4 5 7 8 10 10 10 10 10 11 11 12 12 12 11 11 11 12 12 13 13 14 14 14 15 17 18 18 19 19 19 20 21 21 21 22 22 23 23 23 23 25 27 29 31 32 33 33 33 31 31 31 31 32 32 31 29 30 32 32 32 34 36 36 37 36 34 35 35 35 34 33 33 34 36 40 43 44 44 42
3 2 2 2 3 4 6 7 9 11 11 10 10 11 11 12 12 13 13 12 11 11 12 13 13 14 14 15 15 16 18 19 19 20 20 20 21 22 23 23 23 23 24 25 25 25 25 25 26 28 31 34 35 35 33 32 32 33 32 33 32 30 29 31 32 32 34 36 37 38 37 35 36 36 36 34 34 34 35 38 41 44 46 45 42
3 3 3 3 5 6 7 8 9 10 11 12 12 12 12 12 13 12 13 13 13 14 14 15 15 15 16 16 17 18 19 20 22 23 23 23 23 23 23 24 25 25 25 24 24 25 25 25 24 24 25 28 32 35 36 33 32 32 32 31 31 31 30 30 32 33 34 36 38 39 38 37 36 37 37 35 36 39 39 39 41 44 45 44 43
3 4 5 5 6 7 7 8 9 11 13 14 14 14 14 13 13 12 12 13 14 15 15 15 16 16 17 17 18 19 20 21 23 25 26 26 26 25 24 24 25 27 27 26 25 25 25 25 24 23 22 23 26 30 35 36 34 32 31 31 31 30 30 31 32 34 35 37 38 39 39 40 39 38 39 40 41 41 39 39 42 43 43 44 45
5 6 7 7 7 7 8 9 10 11 13 14 14 15 14 14 13 12 13 13 14 15 15 16 17 17 18 18 19 19 20 21 22 23 24 25 26 26 25 24 24 25 27 27 27 26 26 26 26 24 23 23 23 25 29 34 37 36 34 32 32 32 32 32 33 33 35 37 38 38 40 42 42 41 42 43 42 40 38 40 42 43 42 43 45
9 10 10 11 11 11 12 12 12 13 14 14 15 15 15 15 15 15 15 15 16 16 17 17 18 18 19 19 19 20 20 21 21 21 22 23 24 25 26 25 24 23 24 26 28 28 27 26 26 25 24 24 24 25 25 28 33 37 37 35 34 33 33 33 34 32 33 35 36 37 39 41 41 41 41 42 42 41 41 40 40 42 44 44 46
14 15 16 16 16 17 17 17 17 17 17 17 17 18 18 18 19 19 19 19 19 19 19 19 19 19 19 20 21 21 21 21 21 22 22 21 22 23 24 25 24 23 23 24 26 28 29 28 27 26 25 24 24 25 26 28 30 34 37 38 36 34 34 33 33 32 32 34 36 38 39 39 40 40 41 42 43 42 42 41 39 41 44 45 46
20 20 21 20 20 20 20 20 20 21 21 21 21 21 21 22 22 22 21 21 20 19 19 19 19 20 20 21 22 22 23 23 23 23 23 22 22 21 22 23 23 22 22 23 24 26 29 30 28 27 25 24 24 26 27 28 30 32 36 39 38 36 34 34 33 32 32 34 37 40 39 38 39 40 39 41 43 42 43 43 40 41 44 45 45
22 23 23 22 22 22 21 21 22 23 23 23 23 23 23 24 23 23 22 20 20 19 19 19 19 20 20 21 22 23 24 25 26 25 25 24 23 22 21 21 21 21 21 22 24 25 27 30 30 29 27 26 28 31 32 30 31 33 35 38 39 37 35 34 34 32 33 34 37 40 40 39 39 37 36 38 41 42 43 44 42 43 45 44 43
23 24 24 24 23 23 23 23 23 23 23 23 23 24 25 25 25 24 23 22 21 20 19 19 19 19 19 20 22 23 25 26 27 28 27 26 25 23 21 20 20 21 20 21 23 25 27 29 30 31 29 29 31 35 37 35 32 33 35 37 38 38 36 34 34 33 33 35 37 40 41 41 40 37 35 36 38 39 41 43 43 43 44 43 44
23 24 24 25 24 24 23 23 23 23 23 23 23 24 25 25 26 26 25 25 24 23 22 21 20 20 20 20 21 23 25 27 29 30 30 29 28 26 24 22 21 21 21 21 22 25 28 30 31 31 30 29 31 35 37 36 34 32 33 35 36 38 38 35 32 32 33 34 37 39 40 40 40 38 37 36 36 37 39 42 44 45 45 45 46
22 23 24 24 24 23 23 23 23 22 22 22 23 23 23 24 25 26 27 28 27 27 25 23 22 21 21 21 22 24 26 27 29 30 31 31 31 29 28 25 23 22 22 22 23 25 28 30 31 32 31 30 32 34 36 35 32 29 29 32 33 35 37 36 31 30 31 32 35 37 37 37 37 36 37 38 38 37 39 44 47 47 47 46 45
21 22 22 22 22 22 22 22 22 22 22 22 22 22 22 23 25 27 29 30 30 29 27 25 23 22 22 23 23 24 25 27 29 30 31 32 33 32 32 30 27 26 25 25 25 26 28 30 31 32 32 33 33 34 36 36 31 25 23 26 30 32 33 33 30 28 28 30 32 34 35 35 34 34 35 37 39 39 40 45 48 48 47 47 46
21 21 21 21 21 21 21 21 22 22 22 22 21 21 22 23 25 27 29 31 32 31 30 28 27 26 25 24 23 23 25 27 30 31 32 32 33 34 33 32 31 30 29 29 28 28 29 31 32 32 32 34 34 33 34 36 32 24 19 19 25 29 29 28 28 27 27 27 29 31 32 33 34 35 36 37 38 40 40 42 44 45 46 46 46
21 21 21 21 22 22 22 22 22 22 22 21 21 21 22 23 25 27 30 31 32 31 31 31 31 30 28 26 26 25 25 27 30 32 33 33 35 35 34 33 32 32 31 31 31 31 32 33 34 34 33 34 36 33 30 31 30 23 16 14 19 24 25 26 26 24 24 24 25 27 28 28 30 33 35 36 38 39 38 39 41 43 44 44 47
22 22 22 22 22 23 23 23 23 23 22 22 21 22 23 24 26 28 30 32 32 32 31 31 32 32 31 30 29 28 27 28 30 32 34 35 36 36 36 34 34 33 31 32 32 33 35 36 36 36 35 34 35 32 26 24 25 23 16 11 14 19 22 23 23 22 23 23 23 24 24 25 28 31 34 36 38 39 37 37 40 42 42 43 46
21 21 22 22 22 22 22 22 23 23 23 23 23 23 25 25 27 28 30 32 33 32 32 33 34 35 34 33 31 30 30 29 30 32 34 36 36 37 36 35 35 34 32 32 31 30 32 34 34 34 33 32 31 29 23 19 21 22 19 14 12 12 13 16 18 21 22 23 22 23 24 26 29 32 35 36 38 37 35 35 38 40 41 42 42
20 20 20 21 21 21 20 21 22 22 23 23 24 24 25 25 26 28 30 32 33 34 34 35 36 37 38 36 34 33 32 31 31 32 34 36 37 37 36 35 35 34 33 31 29 27 27 29 30 29 29 28 26 25 21 17 17 19 19 16 13 10 7 7 9 13 15 16 16 19 21 23 25 29 32 33 34 33 32 33 36 38 39 40 40
16 17 18 18 18 18 18 18 19 20 22 23 24 24 24 24 26 28 30 32 33 34 35 36 37 39 40 39 37 35 34 33 32 33 34 35 36 37 36 35 35 33 32 30 28 26 24 25 26 26 26 25 23 21 19 17 17 17 16 15 12 8 7 8 6 4 3 2 2 5 7 9 12 16 18 18 19 23 27 32 35 36 36 37 37
14 14 15 16 16 16 16 16 16 17 20 22 23 23 23 24 25 27 29 31 32 33 34 36 38 40 41 41 39 37 36 35 33 33 34 34 35 36 35 35 34 33 32 30 27 25 22 21 22 22 24 24 23 20 18 18 18 17 16 16 14 11 10 10 9 8 8 8 6 5 5 4 3 2 3 1 4 7 12 20 26 29 30 32 32
12 13 13 14 15 15 15 15 15 15 18 21 22 22 22 23 24 26 28 30 31 32 33 35 37 39 40 41 40 38 37 36 35 34 34 34 35 35 35 35 34 33 32 31 28 26 24 23 22 22 23 24 26 26 24 21 19 19 18 18 17 15 13 14 14 13 12 11 8 7 9 8 7 7 6 5 4 5 5 5 9 14 20 25 27
12 12 12 12 12 14 15 15 15 15 17 19 21 21 21 21 23 25 27 29 30 31 32 34 36 38 40 41 41 39 37 36 35 34 33 33 34 34 34 34 34 34 33 32 31 29 28 26 25 24 23 23 25 28 28 26 24 24 23 22 21 20 18 18 16 14 13 13 11 11 10 8 5 3 3 1 1 1 2 2 3 5 11 17 20
11 11 10 10 10 11 13 14 15 16 17 18 19 21 21 20 21 23 25 28 29 30 31 32 34 36 38 40 41 41 39 37 36 34 33 32 31 32 33 33 34 34 34 32 31 30 31 31 30 29 29 29 29 31 31 30 29 29 27 25 23 21 20 21 20 18 16 14 12 10 9 7 6 5 4 5 4 5 5 5 4 4 7 12 16
11 10 10 9 8 9 11 12 14 16 16 16 17 19 20 20 20 22 23 25 27 28 29 30 32 33 35 37 39 40 39 36 33 31 30 29 28 28 29 30 31 32 32 31 30 31 33 35 35 35 35 36 36 36 36 34 32 30 29 27 25 22 21 22 23 23 22 20 19 18 16 15 14 12 10 9 9 11 12 11 10 9 9 12 16
11 12 11 9 9 10 11 11 13 15 16 15 15 17 18 19 20 21 22 23 25 27 28 29 30 31 32 34 36 37 37 34 32 29 28 27 26 25 25 27 28 29 29 29 30 32 35 37 37 38 37 38 38 38 37 37 35 33 30 28 27 26 25 24 22 20 19 21 23 24 24 25 25 24 23 21 17 14 15 16 18 18 17 18 22
11 12 11 10 11 12 12 11 12 13 14 14 14 16 17 18 20 21 21 21 23 25 26 27 28 29 31 32 34 35 36 35 34 32 29 27 25 24 23 25 27 29 29 29 31 34 37 37 38 38 37 37 37 37 36 36 35 34 32 30 28 26 25 25 23 20 18 18 18 20 21 23 24 24 25 26 25 24 23 25 27 28 28 29 31
10 10 10 10 11 12 12 11 10 11 12 13 14 16 17 18 19 20 20 20 21 23 24 25 26 27 28 31 33 35 35 36 36 35 32 28 25 24 23 24 26 28 29 30 32 35 36 36 37 37 37 36 36 36 36 35 34 32 32 32 31 28 26 23 22 21 21 20 19 20 20 20 20 21 20 20 21 22 24 26 28 30 32 34 34
8 9 8 8 10 11 11 10 8 9 11 12 13 15 16 17 19 20 19 19 20 21 23 24 24 25 26 28 31 33 34 35 35 36 34 31 27 24 23 24 26 28 29 31 34 35 35 35 34 35 36 36 35 35 35 35 33 32 31 31 30 29 27 24 21 20 21 20 21 21 21 20 20 21 20 19 19 19 20 21 23 24 27 28 29
6 8 7 6 7 9 10 9 7 8 10 11 13 14 15 15 17 18 19 19 19 20 22 23 23 24 25 26 28 31 32 33 34 34 34 33 29 25 23 23 24 27 30 32 34 35 35 35 34 33 33 34 34 34 34 33 33 32 32 31 29 28 27 26 25 23 20 18 17 18 18 18 18 20 22 23 23 22 21 20 19 19 20 21 22
7 7 7 5 5 7 8 7 6 6 7 9 11 12 12 13 14 16 18 19 19 20 20 21 22 23 23 24 26 28 30 32 33 33 34 33 30 27 24 24 26 28 29 31 32 32 33 34 33 32 31 31 31 32 32 31 31 31 31 30 30 28 27 26 27 26 24 22 19 17 15 14 13 15 18 22 23 24 23 21 20 19 18 18 18
8 7 5 4 4 5 6 6 6 5 5 7 9 10 11 11 12 13 16 17 18 19 20 20 21 22 22 23 24 26 28 30 31 32 33 33 32 29 27 26 27 27 27 28 29 30 30 30 31 31 30 28 28 28 29 29 29 28 28 28 28 29 28 27 26 25 25 25 24 22 20 18 16 15 17 19 20 20 21 20 20 19 18 17 17
9 6 4 2 3 4 5 6 5 4 4 6 8 9 10 10 10 11 13 15 17 19 19 20 20 21 21 22 23 24 26 27 28 30 32 33 32 30 26 24 24 25 26 26 26 27 28 28 29 30 30 29 27 26 26 26 26 26 25 26 26 27 28 27 26 25 25 24 24 23 22 21 20 19 19 18 17 17 17 18 18 18 17 15 14
9 6 4 2 2 3 5 5 5 3 4 6 8 9 10 9 9 10 12 14 15 17 19 20 20 20 20 21 22 23 24 25 26 28 30 32 32 30 26 24 23 23 24 24 24 25 26 27 27 27 28 28 27 26 25 25 25 24 23 24 24 25 26 26 26 27 26 25 24 23 21 19 18 17 15 15 15 15 17 18 19 19 18 16 14
10 7 5 3 2 2 4 5 3 2 5 6 7 9 9 7 7 8 10 12 14 16 18 19 20 20 20 21 22 22 22 23 26 28 29 30 30 29 27 25 23 23 23 24 24 24 25 25 25 24 25 26 26 26 25 25 24 23 22 21 22 23 24 25 26 26 26 26 25 24 22 20 17 15 13 12 12 14 16 18 18 18 17 16 14
10 8 5 3 3 3 4 4 1 2 4 5 7 8 7 5 5 6 8 11 13 14 16 17 18 20 20 20 21 21 21 22 24 26 27 28 28 27 26 26 25 24 24 24 24 24 24 23 23 23 23 23 23 24 24 23 23 23 22 21 20 21 21 22 24 25 25 25 25 24 23 21 18 17 15 13 12 12 15 16 16 15 15 15 13
9 7 5 4 4 4 4 2 1 2 2 4 7 8 6 5 5 5 7 10 12 12 13 14 16 18 19 19 19 20 20 20 22 24 25 26 26 26 25 24 23 23 23 23 23 23 23 22 22 21 21 21 22 22 21 21 22 22 22 20 19 19 19 19 20 21 22 22 22 23 22 21 19 17 16 15 13 13 13 13 13 14 14 13 11
9 7 4 4 5 5 3 2 2 2 2 4 7 8 7 5 5 4 5 9 11 11 12 12 13 16 17 18 18 19 19 19 20 21 22 23 24 25 25 23 22 22 22 23 23 23 23 22 22 21 20 20 21 21 20 19 20 21 21 20 18 17 17 18 18 18 19 20 20 20 21 21 20 19 17 15 13 13 11 10 10 12 13 11 10
9 7 5 4 5 5 3 2 3 3 3 4 8 9 7 5 4 4 6 8 9 9 10 10 11 13 15 16 17 18 19 19 19 19 20 21 22 23 24 23 21 20 21 21 22 22 22 22 22 21 19 18 19 19 19 19 18 19 20 19 17 15 15 16 16 16 17 17 18 18 18 19 19 19 18 17 14 13 11 9 8 10 11 10 9
10 8 6 5 5 5 5 5 4 4 4 5 7 9 8 5 4 5 7 8 8 8 9 9 10 11 13 14 16 17 18 19 19 18 18 19 20 21 22 22 20 19 20 21 21 22 22 22 21 20 19 17 17 17 17 18 18 18 18 18 16 14 13 14 16 17 16 15 15 16 16 16 16 15 16 15 14 13 12 10 7 6 8 9 8
11 8 6 5 6 6 6 6 4 4 6 6 6 7 8 6 5 6 8 9 8 8 8 8 9 10 11 13 15 16 16 18 19 18 17 17 18 19 20 21 20 19 19 21 21 22 22 21 20 20 19 17 16 16 17 17 17 18 17 17 15 13 12 12 14 15 14 13 14 14 13 13 14 13 13 12 12 11 10 9 7 4 4 5 6
12 10 7 6 6 6 7 6 5 4 6 6 5 6 8 7 6 6 8 9 9 9 9 9 9 10 12 13 14 14 15 16 17 18 16 15 16 18 19 19 19 18 18 19 21 22 22 21 20 20 19 18 17 17 17 17 17 17 17 17 16 14 11 10 10 12 12 12 13 13 12 11 12 13 12 11 10 9 8 7 5 4 2 2 4
12 11 9 8 7 7 7 7 5 5 6 6 6 6 7 7 6 6 7 8 9 10 10 10 9 11 12 13 13 14 14 14 15 16 15 14 14 16 17 18 18 18 17 18 19 21 21 20 19 19 18 18 17 18 18 18 18 18 17 16 16 14 12 9 7 8 9 10 11 12 11 10 10 10 10 10 10 9 7 6 4 3 2 2 4
12 11 11 10 9 9 9 8 7 6 6 6 6 6 7 7 7 7 7 7 8 9 10 10 10 11 13 14 14 14 13 13 13 14 14 14 13 13 15 16 17 17 17 17 18 19 20 20 18 17 17 17 17 17 17 17 18 18 17 16 15 14 13 11 8 6 6 7 8 9 9 9 8 8 9 9 9 8 7 6 5 3 2 3 4
13 13 13 12 12 11 11 11 10 9 7 6 7 7 7 7 8 8 8 8 8 9 10 10 10 12 14 14 13 12 12 12 12 12 13 13 12 12 13 15 16 16 16 16 16 17 18 18 17 17 17 17 16 16 17 17 17 17 17 16 16 14 13 12 10 8 6 5 6 6 7 7 7 8 8 8 9 8 6 5 5 4 2 1 3
15 15 14 14 13 12 12 11 11 10 9 8 9 9 9 9 9 9 9 9 9 9 9 10 11 12 13 13 12 11 10 10 11 12 12 12 12 12 12 13 14 15 15 15 15 15 16 16 16 16 17 17 16 16 16 17 17 17 16 15 15 14 13 12 11 9 8 6 6 6 7 7 7 8 8 8 8 7 6 4 3 3 2 0 2
16 17 17 16 14 14 13 12 12 11 11 10 10 11 11 11 11 11 11 10 10 10 9 9 10 11 12 12 12 11 11 11 12 13 13 13 13 12 12 12 13 14 14 13 13 14 14 14 14 14 14 15 15 15 15 16 17 17 17 16 15 14 13 12 11 11 10 8 7 7 7 8 8 8 9 9 8 7 6 6 5 4 3 2 3
Wind_Direction
45 30 14 348 320 310 306 303 304 303 304 311 316 311 315 329 331 332 333 326 319 315 310 306 299 294 291 290 291 292 291 291 291 290 288 285 282 282 285 286 288 289 290 289 286 284 282 279 278 279 282 283 279 274 272 270 269 269 267 264 261 260 260 258 255 256 258 257 255 255 255 254 254 255 257 256 251 243 235 230 228 227 226 226 225
31 9 353 335 321 315 311 310 312 315 318 321 323 324 337 346 344 341 341 337 333 332 328 325 321 315 310 306 305 305 306 307 307 306 305 301 295 288 285 283 284 284 286 286 285 284 283 281 280 279 279 280 277 273 271 271 271 271 268 265 262 260 261 262 260 259 258 256 252 251 252 252 252 253 256 256 254 248 238 231 227 225 225 225 224
9 349 339 332 328 326 326 331 336 342 347 348 348 348 347 346 346 346 345 341 339 339 337 335 333 329 327 325 321 321 324 326 328 326 322 318 314 309 302 295 290 286 284 284 283 283 283 284 284 283 282 280 278 275 272 272 273 272 269 265 263 261 261 263 263 261 260 259 254 250 250 251 253 253 255 258 258 251 241 233 229 225 222 223 224
351 339 336 338 343 351 360 11 16 18 18 14 8 0 353 349 347 347 345 344 345 347 345 343 340 338 339 340 338 337 338 339 338 336 332 329 325 322 319 315 309 303 297 292 287 283 281 280 281 282 282 281 280 279 276 273 272 271 270 268 267 265 264 264 264 262 261 260 258 254 251 252 254 253 253 256 256 251 244 237 232 228 222 220 221
351 344 345 355 20 26 24 22 22 23 21 15 10 4 360 356 354 352 350 351 353 353 352 350 349 349 349 349 348 346 344 343 342 340 336 332 329 326 323 321 318 315 312 307 299 291 284 280 278 277 277 277 277 278 278 276 273 271 269 269 268 269 269 268 265 262 260 261 260 257 253 252 252 249 248 250 250 246 242 239 236 233 227 222 220
7 7 16 46 59 47 32 19 16 18 17 12 10 8 6 3 1 1 0 359 357 356 354 353 353 355 355 354 351 347 344 342 341 340 337 332 329 327 325 323 321 318 316 314 310 303 293 285 279 274 271 270 271 273 275 276 275 272 269 267 265 267 269 269 268 264 260 260 261 259 256 253 249 246 245 246 246 243 240 238 237 235 232 227 222
35 61 81 83 75 61 44 28 17 13 13 17 18 15 13 10 8 9 7 4 1 358 356 355 355 355 354 352 350 348 345 342 339 338 338 336 332 327 324 323 322 321 320 317 315 311 304 296 289 281 273 269 266 267 269 272 274 274 272 268 265 264 265 266 266 263 259 258 260 259 257 253 248 246 245 245 244 241 238 237 235 234 233 229 224
56 83 92 85 72 58 45 35 26 22 26 34 35 30 26 21 17 16 13 10 9 7 3 1 358 355 353 352 351 349 347 343 341 338 337 336 335 331 326 322 321 322 322 320 319 317 312 305 298 292 285 277 269 264 261 262 267 271 273 272 268 263 262 262 262 261 259 258 258 259 257 252 246 244 244 242 239 235 234 235 236 236 234 229 224
64 81 84 77 66 53 45 42 39 37 38 40 40 38 37 34 30 26 22 19 16 13 9 5 1 357 356 354 352 350 347 346 347 344 340 337 335 333 330 326 323 323 323 324 323 321 320 315 308 301 296 289 280 270 262 257 258 262 266 269 269 265 262 262 262 261 258 257 257 257 254 249 243 241 241 241 239 236 235 236 235 236 236 231 226
92 91 83 74 67 60 57 54 48 45 44 43 41 39 38 39 37 33 29 25 20 15 10 7 4 2 1 358 355 352 350 349 349 347 343 339 335 333 332 329 326 324 325 326 326 326 326 323 318 311 303 296 290 281 269 259 254 253 256 259 263 264 262 261 262 261 258 256 256 255 251 247 244 242 242 244 243 240 237 236 234 233 233 230 227
101 93 86 82 79 75 71 66 61 58 55 52 49 45 43 43 42 39 35 30 26 22 17 13 11 9 5 2 359 356 354 351 349 345 343 340 336 334 333 332 330 328 327 326 327 329 329 326 323 319 313 307 300 292 281 267 256 250 250 251 253 256 257 258 260 259 256 256 257 255 250 247 246 244 243 245 244 240 237 235 234 233 230 228 228
98 92 87 84 82 79 75 72 69 66 64 61 59 56 53 51 48 44 40 36 33 29 26 22 19 15 11 8 5 3 360 356 351 348 345 342 339 337 336 334 334 335 334 332 332 333 332 329 326 323 320 317 312 305 293 279 265 253 248 248 249 250 250 251 253 254 252 253 256 255 253 251 250 247 244 243 243 242 238 235 235 236 235 233 233
96 91 87 83 81 79 76 73 71 69 68 66 64 61 58 55 51 47 44 40 36 33 30 27 23 20 17 14 12 10 6 2 358 354 350 346 343 340 337 336 336 337 339 339 339 338 337 333 329 325 324 325 325 322 309 292 277 263 251 246 247 248 247 246 247 249 251 254 256 255 255 255 253 251 249 246 243 242 239 236 234 236 238 239 239
94 89 85 81 79 77 74 72 71 69 69 67 65 63 60 56 52 47 43 38 35 31 29 26 24 21 19 16 13 11 8 4 1 357 354 351 347 342 339 338 337 337 340 343 345 346 343 339 335 331 329 329 330 330 326 312 291 274 261 251 247 246 247 246 244 244 247 251 255 256 256 257 256 256 254 250 246 244 241 238 235 236 240 242 239
93 88 84 79 76 74 72 71 70 70 70 69 68 65 61 57 52 46 42 37 33 29 25 21 19 17 15 13 11 9 7 4 1 358 355 353 351 347 342 339 338 338 340 344 349 351 349 346 343 339 335 329 327 329 329 322 305 284 270 259 250 247 246 246 244 243 244 246 250 254 255 255 256 257 257 253 251 251 249 246 242 239 239 238 233
91 86 82 78 75 73 71 71 71 72 71 69 67 64 60 55 50 46 42 39 35 31 26 21 16 13 9 8 9 9 7 5 3 360 356 354 352 350 347 343 340 340 342 345 350 354 354 353 350 346 340 330 327 330 331 324 311 295 278 265 256 249 247 247 245 244 245 245 246 249 252 254 253 254 255 254 253 253 250 245 241 235 229 226 226
88 84 80 78 75 73 71 70 70 70 68 66 64 61 57 51 47 44 40 36 34 31 28 24 19 14 10 8 10 10 9 8 7 3 360 357 355 352 351 349 345 344 345 348 351 354 356 356 353 351 347 337 331 335 337 331 319 304 286 269 258 250 247 248 248 247 247 248 247 247 250 253 253 253 254 253 253 253 247 239 235 231 225 221 221
88 84 80 78 75 73 71 68 68 67 65 64 62 58 54 48 44 41 36 33 32 30 29 28 25 21 17 14 14 14 13 13 11 8 6 3 1 358 355 353 352 349 348 349 351 353 355 356 355 354 352 346 338 337 341 341 333 318 297 274 259 252 249 249 251 252 252 252 251 250 250 251 252 252 254 253 252 252 246 238 235 231 227 224 222
88 86 83 80 77 74 71 68 67 66 64 63 61 56 51 47 43 39 35 32 31 30 30 29 27 25 23 21 18 17 18 17 15 13 12 9 7 5 1 358 357 355 351 349 350 352 353 354 356 355 353 350 345 340 341 347 345 334 314 285 263 255 253 253 256 261 262 261 259 257 255 253 250 249 250 250 251 250 247 242 238 234 231 229 224
91 89 86 83 80 75 72 69 67 64 62 60 58 54 51 47 42 39 35 32 30 31 31 30 28 27 26 24 22 20 20 21 19 17 16 14 12 10 8 5 3 0 357 353 351 351 352 353 355 355 353 350 348 343 341 348 351 343 325 294 270 261 258 259 261 265 268 269 268 264 259 255 251 250 249 248 248 247 244 241 240 237 235 232 227
94 92 88 85 80 75 71 68 64 62 61 59 57 54 50 46 42 38 35 32 31 31 31 30 28 27 26 24 24 23 22 21 21 19 18 17 15 13 12 10 7 4 1 358 354 352 352 353 354 354 351 348 346 344 343 350 356 352 342 317 285 270 265 266 268 268 270 273 274 271 265 260 256 252 249 247 245 243 240 238 239 238 236 234 230
96 93 88 84 79 73 70 66 62 61 60 57 54 51 48 44 40 37 35 32 31 30 29 27 26 26 26 24 23 23 24 22 21 20 18 17 17 15 14 13 10 6 3 360 356 354 356 356 355 353 350 347 346 345 347 355 3 2 357 348 328 304 288 284 282 278 274 273 273 271 265 260 255 250 244 240 239 237 235 235 237 237 236 237 235
98 94 88 82 77 73 68 65 61 59 56 53 50 47 45 43 40 37 35 33 31 30 28 27 26 26 25 24 23 23 24 24 22 20 18 17 16 15 15 15 13 9 6 3 358 357 1 3 1 357 352 349 350 352 355 4 14 12 6 360 355 356 358 344 321 300 283 271 263 257 249 243 241 239 235 232 231 231 232 232 232 232 232 231 231
100 95 87 79 74 70 67 63 59 56 53 50 46 44 43 42 40 38 36 33 31 29 28 27 27 26 25 24 23 23 23 23 22 20 18 16 16 15 14 15 15 12 10 8 3 1 3 8 9 6 2 359 359 359 3 18 29 27 21 14 9 17 47 62 56 20 328 282 251 248 238 227 222 219 220 226 232 233 231 228 225 225 226 225 224
101 95 89 81 73 67 65 63 59 54 51 48 44 41 40 41 41 39 36 34 31 30 28 27 28 27 24 23 22 21 21 21 20 19 17 15 15 15 13 15 16 15 13 13 11 9 8 9 12 13 14 16 16 15 18 30 40 42 38 31 28 35 54 74 83 81 78 76 72 76 79 63 38 84 107 61 305 275 244 228 219 217 218 219 219
107 101 95 87 76 67 62 61 58 53 50 47 43 39 38 40 40 38 36 34 32 30 29 27 27 26 24 22 21 20 19 19 18 17 16 14 14 14 13 14 17 17 15 15 16 18 19 18 19 21 23 26 29 33 36 38 42 48 48 44 42 47 57 69 71 67 66 67 69 84 88 71 44 39 51 52 16 355 331 264 224 214 215 216 214
116 111 103 92 78 67 60 57 55 51 49 49 45 40 38 39 40 38 36 35 33 31 29 28 26 25 23 22 21 20 19 18 17 16 15 13 12 11 11 14 17 17 17 17 17 21 26 27 28 29 30 31 34 37 40 42 44 49 53 55 56 58 63 69 73 76 80 82 85 89 89 85 77 58 41 28 315 325 322 294 253 212 212 212 202
114 109 103 93 79 67 59 56 52 48 49 51 47 42 39 39 39 38 36 34 33 31 30 29 27 25 22 21 20 20 19 17 16 15 13 13 12 10 10 13 16 18 19 19 19 22 27 29 31 31 31 32 33 33 36 40 44 50 55 58 61 64 67 71 73 75 80 86 92 96 101 112 122 134 158 171 167 160 173 207 221 198 200 204 186
104 99 94 86 78 68 60 55 50 47 49 52 48 43 39 37 38 38 37 35 34 32 30 29 28 26 23 21 21 20 19 17 15 13 13 13 13 12 12 14 17 18 19 19 21 25 28 30 30 30 28 29 30 31 33 34 36 41 49 54 58 60 64 68 69 69 72 77 80 82 87 93 94 99 117 133 140 147 156 168 173 173 191 196 173
100 95 89 81 75 69 62 55 48 46 49 52 49 43 38 35 36 36 35 35 35 33 31 29 27 27 25 23 22 22 20 17 15 14 16 16 15 15 15 16 18 20 19 19 23 29 32 32 31 30 29 28 29 31 32 32 33 34 39 46 52 55 58 61 63 65 70 75 77 79 83 85 83 81 82 84 88 106 130 141 145 149 158 161 149
103 93 86 79 73 67 62 54 46 44 47 50 49 44 39 35 35 34 32 31 33 34 32 28 26 26 25 23 23 22 21 19 18 17 19 18 17 18 19 19 21 22 21 21 26 32 34 34 32 31 30 30 30 31 32 33 34 35 37 40 44 48 52 57 59 62 66 73 78 81 82 80 75 71 72 74 76 84 96 106 112 115 118 121 119
110 96 88 79 71 64 57 51 45 41 42 46 48 45 40 36 35 33 30 27 29 32 32 28 26 25 24 22 22 20 19 19 20 19 20 19 18 20 24 24 25 25 24 26 30 33 33 33 32 31 30 30 30 31 32 34 35 36 38 40 42 43 46 50 57 64 68 72 77 77 72 68 63 60 60 63 71 79 86 90 93 96 100 103 104
121 104 96 81 69 62 55 50 44 37 40 47 48 43 39 35 34 33 30 25 25 29 31 29 26 25 24 23 21 19 18 18 19 19 20 19 19 23 29 31 30 28 28 31 34 34 32 31 31 30 29 29 29 30 32 34 35 36 37 38 41 44 46 48 55 66 72 75 76 71 62 56 59 64 66 67 72 80 86 86 87 91 93 93 94
137 115 106 91 72 62 54 49 43 38 43 47 43 37 33 30 29 30 29 26 24 26 29 30 27 25 24 23 21 19 17 17 18 19 20 19 20 24 30 35 35 33 32 33 35 35 33 31 30 29 28 28 28 29 31 33 35 37 38 38 39 41 44 46 50 57 63 68 71 68 60 55 55 63 72 76 77 78 81 83 85 87 88 87 89
152 125 114 104 79 62 57 53 50 48 47 42 34 30 28 25 24 27 29 28 26 25 25 26 27 26 25 23 21 19 17 16 18 19 19 19 19 21 26 32 35 34 32 31 31 32 32 31 29 28 28 27 28 28 29 31 33 36 39 41 41 41 41 43 46 49 50 51 55 59 63 65 65 68 76 80 78 74 73 76 79 81 84 88 92
155 136 121 107 77 64 67 70 71 70 58 40 29 25 22 18 18 23 29 30 28 25 23 23 25 26 25 24 21 19 17 16 17 18 19 19 19 20 25 32 33 31 29 29 27 27 29 30 30 28 27 27 28 28 29 30 32 34 37 40 42 44 44 44 45 47 48 48 50 54 59 66 73 81 84 84 81 75 72 74 78 81 86 91 96
157 154 147 123 78 75 84 86 87 85 55 29 21 15 11 8 10 17 27 31 29 26 24 21 22 25 26 25 23 20 17 16 17 18 19 20 20 21 25 30 33 32 29 28 27 25 25 28 29 28 28 27 28 29 30 30 31 33 35 37 40 43 45 46 47 48 49 50 52 56 61 68 75 82 85 86 85 81 77 77 81 83 84 88 97
166 175 175 157 108 96 98 95 91 70 26 13 9 2 358 359 2 10 23 29 28 27 27 24 21 23 24 25 24 21 17 17 18 19 19 21 22 24 25 28 32 32 30 29 28 26 24 24 25 26 28 28 27 28 29 29 30 31 32 36 38 40 42 45 47 48 49 51 52 55 60 68 75 80 84 87 85 82 83 85 85 84 83 83 88
177 185 181 164 139 124 116 110 98 28 359 359 359 355 355 357 355 0 17 27 26 27 28 26 23 23 23 24 24 22 18 17 19 19 19 20 22 25 28 31 33 34 32 32 31 28 25 23 21 21 24 26 27 27 27 27 28 29 30 33 37 39 41 44 46 46 46 47 49 52 56 61 66 70 75 81 82 82 86 88 84 80 79 80 83
188 194 189 170 160 154 143 139 138 341 343 347 350 351 355 0 358 358 12 21 23 24 27 27 25 25 23 22 21 20 18 18 19 19 18 19 20 23 26 30 33 33 32 30 29 27 25 23 19 16 17 19 22 23 24 26 28 28 28 30 33 37 41 44 46 46 45 44 46 48 52 56 61 64 68 74 80 85 86 85 78 73 74 79 85
201 206 200 181 179 182 174 171 245 327 341 348 350 350 351 360 7 7 9 14 17 20 23 24 24 24 23 21 19 19 18 18 19 19 17 18 19 20 22 25 28 29 28 25 23 23 22 21 18 15 13 15 18 19 20 24 27 27 27 27 30 34 38 41 43 44 42 41 42 44 46 49 54 60 65 69 74 81 84 80 74 73 80 88 96
211 213 204 186 188 195 201 227 295 311 321 344 351 349 344 352 10 16 6 7 12 16 17 19 20 20 21 20 18 18 19 19 19 19 18 18 19 19 20 21 23 26 26 23 20 20 19 19 19 17 13 12 15 18 19 21 23 24 24 26 28 31 34 37 40 42 42 41 41 42 42 43 46 51 58 64 69 75 80 78 74 78 88 100 109
209 214 217 206 198 200 214 251 283 291 303 339 353 351 345 351 18 24 5 0 4 9 10 11 12 14 16 17 16 17 19 20 20 18 18 19 19 19 18 20 22 24 25 23 20 20 19 19 20 20 17 14 14 16 18 19 18 19 21 25 27 29 31 33 37 41 44 45 44 45 46 47 47 49 53 59 63 69 75 80 83 87 93 103 112
210 221 233 227 211 210 233 260 277 285 294 320 348 355 349 346 4 18 8 357 355 1 3 360 1 6 8 10 11 13 15 18 19 17 16 18 20 18 17 18 21 24 26 25 23 22 20 19 19 20 20 19 18 18 17 17 16 17 19 22 25 28 30 31 34 38 41 43 45 48 51 52 51 50 52 55 59 63 70 78 90 101 104 106 108
215 224 232 231 221 221 240 259 275 288 291 300 331 354 351 340 341 4 7 357 349 351 352 348 350 356 357 359 3 6 8 12 15 15 14 16 18 18 17 16 17 21 25 26 25 23 20 18 18 18 19 19 21 21 19 17 17 18 19 20 21 23 26 29 32 35 37 38 42 47 51 52 52 53 52 51 50 51 57 66 76 93 117 125 121
215 220 227 235 234 235 245 256 266 283 289 290 307 337 345 337 327 342 0 1 353 350 348 343 341 346 348 349 352 357 0 4 8 11 12 13 16 17 16 15 14 16 20 22 23 21 20 19 19 20 19 19 21 23 21 19 19 19 19 18 18 17 19 25 32 35 35 35 37 42 46 49 53 54 52 48 45 43 47 55 64 72 97 148 158
213 217 224 231 233 236 244 249 253 265 279 285 293 313 331 334 323 324 344 357 356 354 354 349 342 342 345 344 343 347 351 354 359 4 8 11 14 16 16 15 13 13 14 16 17 18 19 19 20 22 22 21 21 24 24 23 22 21 19 19 19 18 18 19 24 30 34 36 35 36 37 38 40 41 40 38 38 40 44 47 54 72 105 143 170
215 220 224 224 225 229 235 241 245 255 271 281 287 296 313 323 321 321 333 344 348 353 357 356 349 347 349 345 339 337 340 343 348 356 3 8 12 14 14 13 13 12 12 12 12 14 17 20 23 26 26 24 23 25 26 27 26 25 23 21 22 22 22 22 19 16 20 27 29 30 29 27 22 18 17 20 23 28 35 41 44 55 109 145 159
223 228 229 227 226 229 234 239 244 250 260 270 277 284 294 302 307 313 321 327 333 342 350 352 350 350 352 349 340 333 333 336 339 347 356 3 6 8 8 8 9 11 11 10 8 9 12 17 23 28 30 28 27 29 31 30 29 27 26 25 25 25 25 24 22 17 8 1 0 4 9 13 13 10 7 6 5 4 6 16 27 32 49 154 170
229 233 236 237 236 236 237 241 244 247 252 261 270 277 281 285 291 298 304 312 319 327 334 340 344 346 348 350 348 343 338 335 335 340 347 353 356 358 359 359 1 5 8 8 6 5 6 9 16 23 28 29 30 33 35 33 30 26 25 24 24 24 24 23 21 18 13 2 350 344 342 342 345 349 350 351 350 345 336 329 338 356 3 225 193
233 235 239 244 246 241 238 242 249 252 252 257 267 272 273 276 282 286 290 298 306 310 316 325 334 338 341 349 356 356 350 342 338 338 340 341 343 346 348 348 350 355 359 2 3 3 2 2 5 12 20 26 30 32 32 31 29 26 22 20 19 18 19 18 17 14 11 5 357 349 343 338 336 336 339 344 345 339 326 309 297 298 299 267 221